Location: Unspecified
(28.7900°N, 0.0000°E)
Time: 21:52:43
(UTC+00:00)

UPM/SAT 1 - Visible Passes

Search period start: 04 April 2026 00:00
Search period end: 14 April 2026 00:00
Orbit: 610 x 619 km, 98.3° (Epoch: 28 March)

Date Brightness Start Highest point End Pass type
(mag) Time Alt. Az. Time Alt. Az. Time Alt. Az.
4 Apr ? 03:14:18 10° NNE 03:16:30 28° NE 03:16:30 28° NE visible
4 Apr ? 04:53:19 10° WNW 04:53:34 10° WNW 04:53:34 10° WNW visible
5 Apr ? 03:29:46 10° NNE 03:32:27 38° NNE 03:32:27 38° NNE visible
6 Apr ? 03:45:23 10° N 03:48:25 43° NNW 03:48:25 43° NNW visible
7 Apr ? 04:01:10 10° N 04:04:21 36° NW 04:04:21 36° NW visible
8 Apr ? 02:41:54 10° NE 02:43:14 15° ENE 02:43:14 15° ENE visible
8 Apr ? 04:17:07 10° NNW 04:20:18 26° WNW 04:20:18 26° WNW visible
9 Apr ? 02:56:49 10° NE 02:59:10 23° ENE 02:59:10 23° ENE visible
9 Apr ? 04:33:20 10° NNW 04:36:12 18° WNW 04:36:14 18° WNW visible
10 Apr ? 03:12:03 10° NNE 03:15:06 36° ENE 03:15:06 36° ENE visible
10 Apr ? 04:50:13 10° NW 04:51:39 11° WNW 04:52:09 11° WNW visible
11 Apr ? 03:27:27 10° NNE 03:31:02 57° NE 03:31:02 57° NE visible
12 Apr ? 03:43:02 10° N 03:46:57 68° NNW 03:46:57 68° NNW visible
13 Apr ? 03:58:45 10° N 04:02:52 46° WNW 04:02:52 46° WNW visible
